When you browse on this site, cookies collect data to enhance your experience and personalize the content and advertising you see.
Visit our Privacy Policy to learn more. By continuing to use the site, you agree to this use of cookies and data.
  • în România
  • Lista ţărilor
  • Pe 7 zile
  • Temperatura apei
  • Hartă satelitară
  • Meteo pe hartă
  • Widget-uri
  • user-avatar
    Intrare

    Meteo pe oră la Albuquerque

    Astăzi, 22 Mai, Miercuri

    Timp Temperatura Precipitaţii Vânt Presiune Umiditate
    00:00 +13°C° 0 mm 5 m/s 627 mmHg 39%
    01:00 +12°C° 0 mm 4 m/s 627 mmHg 40%
    02:00 +11°C° 0 mm 4 m/s 626 mmHg 42%
    03:00 +11°C° 0 mm 4 m/s 626 mmHg 42%
    04:00 +10°C° 0 mm 3 m/s 626 mmHg 41%
    05:00 +9°C° 0 mm 2 m/s 626 mmHg 41%
    06:00 +11°C° 0 mm 3 m/s 627 mmHg 39%
    07:00 +12°C° 0 mm 4 m/s 627 mmHg 37%
    08:00 +13°C° 0 mm 4 m/s 628 mmHg 35%
    09:00 +15°C° 0 mm 5 m/s 628 mmHg 32%
    10:00 +16°C° 0 mm 6 m/s 629 mmHg 29%
    11:00 +19°C° 0 mm 6 m/s 629 mmHg 25%
    12:00 +21°C° 0 mm 8 m/s 629 mmHg 23%
    13:00 +22°C° 0 mm 9 m/s 630 mmHg 21%
    14:00 +24°C° 0 mm 11 m/s 630 mmHg 19%
    15:00 +24°C° 0 mm 11 m/s 630 mmHg 19%
    16:00 +24°C° 0 mm 11 m/s 630 mmHg 19%
    17:00 +24°C° 0 mm 12 m/s 630 mmHg 18%
    18:00 +23°C° 0 mm 10 m/s 630 mmHg 21%
    19:00 +22°C° 0 mm 9 m/s 630 mmHg 23%
    20:00 +21°C° 0 mm 7 m/s 630 mmHg 25%
    21:00 +20°C° 0 mm 7 m/s 630 mmHg 27%
    22:00 +19°C° 0 mm 6 m/s 630 mmHg 30%
    23:00 +17°C° 0 mm 6 m/s 631 mmHg 32%

    Mâine, 23 Mai, Joi

    Timp Temperatura Precipitaţii Vânt Presiune Umiditate
    00:00 +16°C° 0 mm 5 m/s 630 mmHg 35%
    01:00 +15°C° 0 mm 4 m/s 630 mmHg 37%
    02:00 +15°C° 0 mm 4 m/s 630 mmHg 39%
    03:00 +14°C° 0 mm 4 m/s 630 mmHg 41%
    04:00 +14°C° 0 mm 5 m/s 630 mmHg 42%
    05:00 +13°C° 0 mm 5 m/s 630 mmHg 43%
    06:00 +14°C° 0 mm 7 m/s 631 mmHg 40%
    07:00 +16°C° 0 mm 8 m/s 631 mmHg 36%
    08:00 +17°C° 0 mm 9 m/s 632 mmHg 32%
    09:00 +18°C° 0 mm 10 m/s 632 mmHg 30%
    10:00 +19°C° 0 mm 11 m/s 633 mmHg 28%
    11:00 +21°C° 0 mm 12 m/s 633 mmHg 26%
    12:00 +22°C° 0 mm 12 m/s 633 mmHg 23%
    13:00 +22°C° 0 mm 13 m/s 633 mmHg 20%
    14:00 +23°C° 0 mm 14 m/s 634 mmHg 18%
    15:00 +22°C° 0 mm 13 m/s 634 mmHg 17%
    16:00 +22°C° 0 mm 11 m/s 634 mmHg 15%
    17:00 +22°C° 0 mm 10 m/s 634 mmHg 14%
    18:00 +20°C° 0 mm 8 m/s 634 mmHg 16%
    19:00 +19°C° 0 mm 5 m/s 634 mmHg 18%
    20:00 +18°C° 0 mm 3 m/s 634 mmHg 20%
    21:00 +17°C° 0 mm 3 m/s 634 mmHg 22%
    22:00 +16°C° 0 mm 3 m/s 634 mmHg 24%
    23:00 +14°C° 0 mm 3 m/s 634 mmHg 26%

    Poimâine, 24 Mai, Vineri

    Timp Temperatura Precipitaţii Vânt Presiune Umiditate
    00:00 +13°C° 0 mm 3 m/s 634 mmHg 28%
    01:00 +13°C° 0 mm 2 m/s 633 mmHg 30%
    02:00 +13°C° 0 mm 2 m/s 633 mmHg 33%
    03:00 +12°C° 0 mm 2 m/s 633 mmHg 34%
    04:00 +11°C° 0 mm 1 m/s 633 mmHg 36%
    05:00 +11°C° 0 mm 1 m/s 633 mmHg 37%
    06:00 +13°C° 0 mm 1 m/s 633 mmHg 33%
    07:00 +14°C° 0 mm 1 m/s 634 mmHg 29%
    08:00 +16°C° 0 mm 1 m/s 635 mmHg 25%
    09:00 +19°C° 0 mm 1 m/s 635 mmHg 22%
    10:00 +19°C° 0 mm 2 m/s 635 mmHg 19%
    11:00 +20°C° 0 mm 2 m/s 635 mmHg 15%
    12:00 +21°C° 0 mm 3 m/s 635 mmHg 15%
    13:00 +22°C° 0 mm 3 m/s 635 mmHg 14%
    14:00 +23°C° 0 mm 4 m/s 634 mmHg 13%
    15:00 +23°C° 0 mm 4 m/s 634 mmHg 13%
    16:00 +25°C° 0 mm 4 m/s 634 mmHg 13%
    17:00 +25°C° 0 mm 4 m/s 634 mmHg 12%
    18:00 +23°C° 0 mm 4 m/s 634 mmHg 13%
    19:00 +22°C° 0 mm 4 m/s 634 mmHg 14%
    20:00 +22°C° 0 mm 4 m/s 634 mmHg 15%
    21:00 +21°C° 0 mm 4 m/s 634 mmHg 16%
    22:00 +20°C° 0 mm 4 m/s 634 mmHg 16%
    23:00 +19°C° 0 mm 4 m/s 634 mmHg 17%

    25 Mai, Sâmbătă

    Timp Temperatura Precipitaţii Vânt Presiune Umiditate
    00:00 +18°C° 0 mm 3 m/s 634 mmHg 20%
    01:00 +17°C° 0 mm 2 m/s 633 mmHg 22%
    02:00 +16°C° 0 mm 1 m/s 633 mmHg 25%
    03:00 +15°C° 0 mm 1 m/s 633 mmHg 26%
    04:00 +15°C° 0 mm 1 m/s 632 mmHg 27%
    05:00 +14°C° 0 mm 1 m/s 632 mmHg 28%
    06:00 +16°C° 0 mm 1 m/s 633 mmHg 24%
    07:00 +20°C° 0 mm 1 m/s 634 mmHg 20%
    08:00 +22°C° 0 mm 1 m/s 635 mmHg 17%
    09:00 +22°C° 0 mm 3 m/s 635 mmHg 15%
    10:00 +25°C° 0 mm 4 m/s 636 mmHg 13%
    11:00 +26°C° 0 mm 6 m/s 636 mmHg 12%
    12:00 +27°C° 0 mm 6 m/s 636 mmHg 11%
    13:00 +28°C° 0 mm 7 m/s 636 mmHg 10%
    14:00 +29°C° 0 mm 8 m/s 635 mmHg 10%
    15:00 +29°C° 0 mm 9 m/s 635 mmHg 10%
    16:00 +29°C° 0 mm 10 m/s 635 mmHg 10%
    17:00 +29°C° 0 mm 10 m/s 635 mmHg 10%
    18:00 +27°C° 0 mm 9 m/s 635 mmHg 12%
    19:00 +26°C° 0 mm 7 m/s 635 mmHg 13%
    20:00 +23°C° 0 mm 6 m/s 635 mmHg 15%
    21:00 +22°C° 0 mm 4 m/s 635 mmHg 17%
    22:00 +21°C° 0 mm 3 m/s 635 mmHg 19%
    23:00 +20°C° 0 mm 2 m/s 635 mmHg 21%

    26 Mai, Duminică

    Timp Temperatura Precipitaţii Vânt Presiune Umiditate
    00:00 +19°C° 0 mm 2 m/s 635 mmHg 21%
    01:00 +18°C° 0 mm 2 m/s 634 mmHg 22%
    02:00 +18°C° 0 mm 2 m/s 634 mmHg 23%
    03:00 +17°C° 0 mm 2 m/s 634 mmHg 24%
    04:00 +17°C° 0 mm 2 m/s 634 mmHg 24%
    05:00 +17°C° 0 mm 2 m/s 634 mmHg 25%
    06:00 +19°C° 0 mm 3 m/s 635 mmHg 23%
    07:00 +21°C° 0 mm 4 m/s 635 mmHg 20%
    08:00 +23°C° 0 mm 5 m/s 636 mmHg 18%
    09:00 +24°C° 0 mm 6 m/s 636 mmHg 18%
    10:00 +26°C° 0 mm 7 m/s 636 mmHg 17%
    11:00 +27°C° 0 mm 8 m/s 636 mmHg 17%
    12:00 +28°C° 0 mm 9 m/s 635 mmHg 16%
    13:00 +29°C° 0 mm 10 m/s 635 mmHg 15%
    14:00 +29°C° 0 mm 11 m/s 634 mmHg 14%
    15:00 +29°C° 0 mm 11 m/s 634 mmHg 16%
    16:00 +28°C° 0 mm 12 m/s 633 mmHg 17%
    17:00 +27°C° 0 mm 12 m/s 633 mmHg 18%
    18:00 +26°C° 0 mm 10 m/s 633 mmHg 19%
    19:00 +24°C° 0 mm 9 m/s 633 mmHg 19%
    20:00 +23°C° 0 mm 7 m/s 633 mmHg 20%
    21:00 +22°C° 0 mm 6 m/s 633 mmHg 19%
    22:00 +21°C° 0 mm 6 m/s 633 mmHg 18%
    23:00 +20°C° 0 mm 5 m/s 633 mmHg 17%

    27 Mai, Luni

    Timp Temperatura Precipitaţii Vânt Presiune Umiditate
    00:00 +19°C° 0 mm 4 m/s 632 mmHg 19%
    01:00 +18°C° 0 mm 3 m/s 632 mmHg 20%
    02:00 +17°C° 0 mm 3 m/s 631 mmHg 21%
    03:00 +16°C° 0 mm 3 m/s 631 mmHg 22%
    04:00 +16°C° 0 mm 2 m/s 631 mmHg 24%
    05:00 +15°C° 0 mm 2 m/s 631 mmHg 26%
    06:00 +16°C° 0 mm 3 m/s 631 mmHg 26%
    07:00 +17°C° 0 mm 3 m/s 632 mmHg 25%
    08:00 +18°C° 0 mm 4 m/s 632 mmHg 25%
    09:00 +19°C° 0 mm 5 m/s 632 mmHg 23%
    10:00 +20°C° 0 mm 6 m/s 632 mmHg 21%
    11:00 +21°C° 0 mm 7 m/s 632 mmHg 19%
    12:00 +22°C° 0 mm 7 m/s 632 mmHg 18%
    13:00 +22°C° 0 mm 8 m/s 631 mmHg 16%
    14:00 +23°C° 0 mm 8 m/s 631 mmHg 14%
    15:00 +23°C° 0 mm 8 m/s 631 mmHg 14%
    16:00 +23°C° 0 mm 8 m/s 631 mmHg 14%
    17:00 +23°C° 0 mm 8 m/s 631 mmHg 14%
    18:00 +22°C° 0 mm 7 m/s 631 mmHg 17%
    19:00 +20°C° 0 mm 6 m/s 631 mmHg 19%
    20:00 +19°C° 0 mm 5 m/s 631 mmHg 21%
    21:00 +18°C° 0 mm 4 m/s 631 mmHg 24%
    22:00 +17°C° 0 mm 4 m/s 631 mmHg 26%
    23:00 +17°C° 0 mm 3 m/s 631 mmHg 29%
    Arată mai mult